Starlink 33894

operational
NORAD ID: 63697 Int'l Des: 2025-087 Owner: SPXS Country: US Constellation: starlink
LEOCIRCULAR

About Starlink 33894

Description loading...

Live Position

Loading 3D Globe...

Upcoming Passes

Altitude History

Altitude vs Time

uPlot chart will show altitude changes over time

Two-Line Element Set

1 63697U 25087A 25303.85170511 .00064362 00000-0 21623-2 0 9991
2 63697 53.1596 102.4452 0001103 61.8014 298.3098 15.30262620 29327
Epoch: Oct 30, 2025 • Age: 17 hours

Current Status

Altitude 491.2 km
Velocity 7.62 km/s
Sub-Earth Point -46.85°S, 165.45°E
Launch Date Apr 28, 2025
Age 0.5 years
Type internet

Technical Details

Classification Payload
Mass 575.00 kg
Dry Mass 530.00 kg
Total Mass 575.00 kg
Length 0.30 m
Diameter 4.10 m
Span 29.00 m
Shape Box + pan
Manufacturer SPXS
Bus Type Starlink V2MO
Phase Status In Orbit
Owner/State SPXS/US

Large Constellations

Loading constellations...